"datetime","# probes","# resolvers","can_ipv6","can_ipv6_prbs","can_tcp","can_tcp_prbs","can_tcp6","can_tcp6_prbs","does_ecs","does_ecs_prbs","does_flagday","does_flagday_prbs","does_rov4","does_rov4_prbs","does_rov6","does_rov6_prbs","does_qnamemin","doesnt_qnamemin","does_qnamemin_prbs","doesnt_qnamemin_prbs","does_nxdomain","doesnt_nxdomain","does_nxdomain_prbs","doesnt_nxdomain_prbs","has_ta_19036","hasnt_ta_19036","has_ta_19036_prbs","hasnt_ta_19036_prbs","has_ta_20326","hasnt_ta_20326","has_ta_20326_prbs","hasnt_ta_20326_prbs","can_rsamd5","cannot_rsamd5","broken_rsamd5","can_rsamd5_prbs","cannot_rsamd5_prbs","broken_rsamd5_prbs","can_dsa","cannot_dsa","broken_dsa","can_dsa_prbs","cannot_dsa_prbs","broken_dsa_prbs","can_rsasha1","cannot_rsasha1","broken_rsasha1","can_rsasha1_prbs","cannot_rsasha1_prbs","broken_rsasha1_prbs","can_dsansec3","cannot_dsansec3","broken_dsansec3","can_dsansec3_prbs","cannot_dsansec3_prbs","broken_dsansec3_prbs","can_rsansec3","cannot_rsansec3","broken_rsansec3","can_rsansec3_prbs","cannot_rsansec3_prbs","broken_rsansec3_prbs","can_rsasha256","cannot_rsasha256","broken_rsasha256","can_rsasha256_prbs","cannot_rsasha256_prbs","broken_rsasha256_prbs","can_rsasha512","cannot_rsasha512","broken_rsasha512","can_rsasha512_prbs","cannot_rsasha512_prbs","broken_rsasha512_prbs","can_eccgost","cannot_eccgost","broken_eccgost","can_eccgost_prbs","cannot_eccgost_prbs","broken_eccgost_prbs","can_ecdsa256","cannot_ecdsa256","broken_ecdsa256","can_ecdsa256_prbs","cannot_ecdsa256_prbs","broken_ecdsa256_prbs","can_ecdsa384","cannot_ecdsa384","broken_ecdsa384","can_ecdsa384_prbs","cannot_ecdsa384_prbs","broken_ecdsa384_prbs","can_ed25519","cannot_ed25519","broken_ed25519","can_ed25519_prbs","cannot_ed25519_prbs","broken_ed25519_prbs","can_ed448","cannot_ed448","broken_ed448","can_ed448_prbs","cannot_ed448_prbs","broken_ed448_prbs","can_gost","cannot_gost","broken_gost","can_gost_prbs","cannot_gost_prbs","broken_gost_prbs","can_sha384","cannot_sha384","broken_sha384","can_sha384_prbs","cannot_sha384_prbs","broken_sha384_prbs","is_internal","is_forwarding","is_external","is_internal_prbs","is_forwarding_prbs","is_external_prbs"
2017-06-20T23:59:59Z,110,161,140,93,161,110,137,91,0,3,0,0,0,0,0,0,3,157,2,107,0,161,0,110,0,0,0,0,0,0,0,0,131,28,2,86,26,5,161,0,0,110,7,1,161,0,0,110,4,1,160,1,0,109,8,1,161,0,0,110,4,1,161,0,0,110,4,1,160,0,0,109,4,1,128,31,2,84,29,2,159,2,0,108,5,1,159,2,0,108,5,1,0,159,2,0,109,2,0,159,2,0,109,2,128,30,2,87,27,2,158,2,0,107,5,1,102,42,17,73,34,15
2017-06-21T23:59:59Z,111,161,139,93,161,111,136,91,2,4,0,0,0,0,0,0,3,158,2,109,0,161,0,111,0,0,0,0,0,0,0,0,128,31,2,85,28,5,161,0,0,111,7,1,161,0,0,111,4,1,161,0,0,111,7,1,161,0,0,111,4,1,161,0,0,111,4,1,161,0,0,111,4,1,126,33,2,84,30,2,159,2,0,109,5,1,159,2,0,109,5,1,0,159,2,0,110,2,0,159,2,0,110,2,126,33,2,86,29,2,158,2,1,108,5,2,103,42,16,74,34,15
2017-06-22T23:59:59Z,114,166,143,95,166,114,140,93,1,5,0,0,0,0,0,0,3,163,2,112,0,166,0,114,0,0,0,0,0,0,0,0,134,30,2,88,28,7,166,0,0,114,8,2,166,0,0,114,4,2,166,0,0,114,8,2,166,0,0,114,4,2,166,0,0,114,4,2,166,0,0,114,4,2,131,33,2,86,32,3,163,3,0,111,6,2,163,3,0,111,6,2,0,164,2,0,113,3,0,164,2,0,113,3,131,33,2,88,30,3,162,3,1,110,6,2,105,44,17,75,37,17
2017-06-23T23:59:59Z,113,165,143,95,165,113,140,93,1,5,0,0,0,0,0,0,2,163,1,112,1,164,1,113,0,0,0,0,0,0,0,0,134,29,2,88,28,5,165,0,0,113,9,0,165,0,0,113,5,0,163,1,1,112,9,1,164,0,1,113,5,1,164,0,1,113,5,1,164,0,1,113,5,1,130,32,3,86,31,2,162,2,1,111,6,1,162,2,1,111,6,1,0,162,3,0,112,2,0,162,3,0,112,2,131,31,3,89,29,2,162,2,1,111,6,1,106,42,17,76,35,16
2017-06-24T23:59:59Z,108,160,140,92,160,108,137,90,0,3,0,0,0,0,0,0,3,157,2,107,0,160,0,108,0,0,0,0,0,0,0,0,129,29,2,84,25,4,160,0,0,108,6,0,160,0,0,108,3,0,159,1,0,107,7,0,160,0,0,108,3,0,160,0,0,108,3,0,160,0,0,108,3,0,127,31,2,83,28,1,159,1,0,107,4,0,159,1,0,107,4,0,0,158,2,0,107,1,0,158,2,0,107,1,128,30,2,86,26,1,159,1,0,107,4,0,100,42,18,71,34,15
2017-06-25T23:59:59Z,109,163,143,93,163,109,140,91,0,3,0,0,0,0,0,0,2,161,1,108,0,163,0,109,0,0,0,0,0,0,0,0,132,29,2,85,26,4,163,0,0,109,7,0,163,0,0,109,4,0,161,2,0,107,9,0,163,0,0,109,4,0,163,0,0,109,4,0,163,0,0,109,4,0,129,32,2,83,30,1,162,1,0,108,5,0,162,1,0,108,5,0,0,161,2,0,108,1,0,161,2,0,108,1,131,30,2,87,27,1,162,1,0,108,5,0,101,44,18,73,34,15
2017-06-26T23:59:59Z,110,162,141,93,162,110,138,91,1,4,0,0,0,0,0,0,2,160,1,109,0,162,1,110,0,0,0,0,0,0,0,0,131,29,2,86,27,5,162,0,0,110,8,2,162,0,0,110,5,2,162,0,0,110,8,1,161,0,1,110,5,2,161,0,1,110,5,2,161,0,1,110,5,2,128,31,3,85,30,4,159,2,1,108,7,3,160,2,0,108,7,1,0,160,2,0,109,2,0,160,2,0,109,2,128,31,3,87,29,3,159,2,1,108,6,3,101,44,17,72,35,14
2017-06-27T23:59:59Z,113,165,145,97,165,113,142,95,1,4,0,0,0,0,0,0,3,162,2,111,0,165,0,113,0,0,0,0,0,0,0,0,134,29,2,88,29,5,165,0,0,113,9,1,165,0,0,113,6,1,164,1,0,112,10,1,165,0,0,113,6,1,165,0,0,113,6,1,165,0,0,113,6,1,132,31,2,87,32,2,164,1,0,112,7,1,164,1,0,112,7,1,0,163,2,0,112,2,0,163,2,0,112,2,133,30,2,90,30,2,164,1,0,112,7,1,102,45,18,75,35,15
2017-06-28T23:59:59Z,111,162,143,96,162,111,139,94,2,4,0,0,0,0,0,0,4,158,3,109,0,162,0,111,0,0,0,0,0,0,0,0,131,29,2,87,28,5,162,0,0,111,9,1,162,0,0,111,6,1,162,0,0,111,9,1,162,0,0,111,6,1,162,0,0,111,6,1,162,0,0,111,6,1,130,30,2,87,30,2,161,1,0,110,7,1,161,1,0,110,7,1,0,160,2,0,110,2,0,160,2,0,110,2,129,30,3,89,29,3,160,1,1,110,7,2,101,44,17,73,35,15
2017-06-29T23:59:59Z,111,161,141,95,161,111,138,93,0,4,0,0,0,0,0,0,4,157,3,109,0,161,0,111,0,0,0,0,0,0,0,0,129,30,2,86,28,6,161,0,0,111,9,1,161,0,0,111,5,1,160,1,0,110,10,1,161,0,0,111,5,0,161,0,0,111,5,0,161,0,0,111,5,0,127,32,2,85,32,1,158,3,0,109,7,0,158,3,0,109,7,0,0,159,2,0,110,1,0,159,2,0,110,1,128,31,2,88,29,1,158,3,0,109,7,0,100,44,17,73,35,15
2017-06-30T23:59:59Z,111,160,139,94,160,111,136,92,0,4,0,0,0,0,0,0,4,156,3,108,0,160,1,111,0,0,0,0,0,0,0,0,129,28,3,86,28,7,160,0,0,111,10,1,160,0,0,111,6,1,160,0,0,111,10,1,160,0,0,111,6,1,160,0,0,111,6,1,160,0,0,111,6,1,128,29,3,86,31,3,159,1,0,110,7,1,159,1,0,110,7,1,0,157,3,0,109,3,0,157,3,0,109,3,128,29,3,88,29,3,159,1,0,110,7,1,100,43,17,73,35,15
2017-07-01T23:59:59Z,112,158,138,96,158,112,135,94,0,5,0,0,0,0,0,0,3,155,2,110,0,158,0,112,0,0,0,0,0,0,0,0,126,30,2,87,29,6,158,0,0,112,11,0,158,0,0,112,6,0,155,3,0,109,13,0,158,0,0,112,6,0,158,0,0,112,6,0,158,0,0,112,6,0,122,34,2,84,35,1,156,2,0,110,8,0,156,2,0,110,8,0,0,156,2,0,111,1,0,156,2,0,111,1,125,31,2,89,30,1,157,1,0,111,7,0,101,41,16,75,34,16
2017-07-02T23:59:59Z,110,160,140,94,160,110,137,92,0,4,0,0,0,0,0,0,4,156,3,108,0,160,0,110,0,0,0,0,0,0,0,0,128,30,2,85,28,5,160,0,0,110,9,0,160,0,0,110,5,0,159,1,0,109,10,0,160,0,0,110,5,0,160,0,0,110,5,0,160,0,0,110,5,0,126,32,2,84,32,1,159,1,0,109,6,0,159,1,0,109,6,0,0,158,2,0,109,1,0,158,2,0,109,1,127,31,2,87,29,1,159,1,0,109,6,0,101,42,17,73,34,15
2017-07-03T23:59:59Z,116,169,145,97,169,116,142,95,2,5,0,0,0,0,0,0,7,162,5,112,0,169,0,116,0,0,0,0,0,0,0,0,134,30,5,89,29,8,169,0,0,116,10,1,169,0,0,116,6,1,168,1,0,115,11,1,169,0,0,116,6,1,169,0,0,116,6,1,169,0,0,116,6,1,131,33,5,87,34,4,166,3,0,113,9,1,166,3,0,113,9,1,0,164,5,0,113,4,0,164,5,0,113,4,132,32,5,90,31,4,167,2,0,114,8,1,108,44,17,77,36,15
2017-07-04T23:59:59Z,113,165,142,95,165,113,139,93,0,4,0,0,0,0,0,0,5,160,4,110,0,165,0,113,0,0,0,0,0,0,0,0,132,30,3,87,30,6,165,0,0,113,11,0,165,0,0,113,7,0,165,0,0,113,11,0,165,0,0,113,7,0,165,0,0,113,7,0,165,0,0,113,7,0,130,32,3,86,33,2,163,2,0,111,8,0,163,2,0,111,8,0,0,162,3,0,111,2,0,162,3,0,111,2,130,32,3,88,31,2,163,2,0,111,8,0,106,43,16,76,34,15
2017-07-05T23:59:59Z,113,164,142,96,164,113,139,94,0,5,0,0,0,0,0,0,3,161,2,111,0,164,0,113,0,0,0,0,0,0,0,0,131,31,2,87,31,6,164,0,0,113,12,0,164,0,0,113,7,0,164,0,0,113,12,0,164,0,0,113,7,0,164,0,0,113,7,0,164,0,0,113,7,0,129,33,2,86,34,1,162,2,0,111,8,0,162,2,0,111,8,0,0,162,2,0,112,1,0,162,2,0,112,1,129,33,2,89,32,1,162,2,0,111,8,0,106,42,16,76,34,16
2017-07-06T23:59:59Z,114,166,142,96,166,114,139,94,0,5,0,0,0,0,0,0,5,161,3,111,0,164,0,113,0,0,0,0,0,0,0,0,131,31,4,87,31,8,166,0,0,114,12,1,166,0,0,114,7,1,166,0,0,114,12,1,166,0,0,114,7,0,166,0,0,114,7,0,166,0,0,114,7,0,129,33,4,86,34,2,164,2,0,112,8,0,164,2,0,112,8,0,0,162,4,0,112,2,0,162,4,0,112,2,129,33,4,89,32,3,164,2,0,112,8,0,105,43,18,77,34,16
2017-07-07T23:59:59Z,115,166,142,97,166,115,139,95,1,6,0,0,0,0,0,0,6,160,4,112,0,166,0,115,0,0,0,0,0,0,0,0,131,31,4,88,31,7,166,0,0,115,12,0,166,0,0,115,7,0,164,2,0,113,14,0,166,0,0,115,7,0,166,0,0,115,7,0,166,0,0,115,7,0,127,35,4,85,36,2,164,2,0,113,8,0,164,2,0,113,8,0,0,162,4,0,113,2,0,162,4,0,113,2,129,33,4,90,32,2,164,2,0,113,8,0,107,42,17,78,34,16
2017-07-08T23:59:59Z,116,166,141,98,166,116,138,96,0,6,0,0,0,0,0,0,5,161,3,113,0,166,0,116,0,0,0,0,0,0,0,0,131,31,4,89,32,8,166,0,0,116,13,0,166,0,0,116,7,0,165,1,0,115,14,0,166,0,0,116,7,0,166,0,0,116,7,0,166,0,0,116,7,0,128,34,4,87,36,2,164,2,0,114,8,0,164,2,0,114,8,0,0,162,4,0,114,2,0,162,4,0,114,2,129,33,4,92,33,2,164,2,0,114,8,0,105,43,18,77,35,18
2017-07-09T23:59:59Z,115,168,145,98,168,115,142,96,0,6,0,0,0,0,0,0,4,164,3,113,0,166,0,114,0,0,0,0,0,0,0,0,133,33,2,88,33,7,168,0,0,115,13,0,168,0,0,115,7,0,167,1,0,114,14,0,168,0,0,115,7,0,168,0,0,115,7,0,168,0,0,115,7,0,130,36,2,86,37,1,166,2,0,113,8,0,166,2,0,113,8,0,0,166,2,0,114,1,0,166,2,0,114,1,131,35,2,91,34,1,166,2,0,113,8,0,107,42,19,77,34,18
2017-07-10T23:59:59Z,114,166,144,97,166,114,141,95,0,5,0,0,0,0,0,0,4,162,3,112,0,166,0,114,0,0,0,0,0,0,0,0,133,31,2,88,31,6,166,0,0,114,12,0,166,0,0,114,7,0,165,1,0,113,13,0,166,0,0,114,7,0,166,0,0,114,7,0,166,0,0,114,7,0,130,34,2,86,35,1,163,3,0,111,9,0,163,3,0,111,9,0,0,164,2,0,113,1,0,164,2,0,113,1,130,34,2,89,33,1,162,4,0,111,9,0,107,42,17,77,34,16
2017-07-11T23:59:59Z,114,167,145,97,167,114,142,95,3,7,0,0,0,0,0,0,3,164,2,112,0,167,0,114,0,0,0,0,0,0,0,0,134,31,2,88,31,7,167,0,0,114,12,1,167,0,0,114,7,1,165,2,0,112,14,1,167,0,0,114,7,1,167,0,0,114,7,1,167,0,0,114,7,1,129,36,2,85,37,2,165,2,0,112,8,1,165,2,0,112,8,1,0,165,2,0,113,2,0,165,2,0,113,2,131,34,2,90,33,2,163,4,0,111,9,1,106,42,19,76,34,17
2017-07-12T23:59:59Z,113,165,143,96,165,113,140,94,0,5,0,0,0,0,0,0,2,163,1,112,0,165,0,113,0,0,0,0,0,0,0,0,133,30,2,87,31,6,165,0,0,113,12,0,165,0,0,113,7,0,164,1,0,112,13,0,165,0,0,113,7,0,165,0,0,113,7,0,165,0,0,113,7,0,130,33,2,86,35,1,162,3,0,110,9,0,162,3,0,110,9,0,0,163,2,0,112,1,0,163,2,0,112,1,130,33,2,89,33,1,162,3,0,110,9,0,106,40,19,76,33,17
2017-07-13T23:59:59Z,113,170,146,95,170,113,143,93,0,5,0,0,0,0,0,0,5,165,3,110,0,168,0,112,0,0,0,0,0,0,0,0,134,32,4,85,32,7,170,0,0,113,12,0,170,0,0,113,7,0,170,0,0,113,12,0,170,0,0,113,7,0,170,0,0,113,7,0,170,0,0,113,7,0,132,34,4,85,35,2,168,2,0,111,8,0,168,2,0,111,8,0,0,166,4,0,111,2,0,166,4,0,111,2,132,34,4,88,33,2,168,2,0,111,8,0,107,43,20,76,33,17
2017-07-14T23:59:59Z,112,166,142,94,166,112,140,93,0,5,0,0,0,0,0,0,5,161,3,109,0,166,0,112,0,0,0,0,0,0,0,0,133,29,4,86,30,7,166,0,0,112,12,0,166,0,0,112,7,0,165,1,0,111,13,0,166,0,0,112,7,0,166,0,0,112,7,0,166,0,0,112,7,0,130,32,4,85,34,2,164,2,0,110,8,0,164,2,0,110,8,0,0,162,4,0,110,2,0,162,4,0,110,2,131,31,4,89,31,2,164,2,0,110,8,0,105,42,19,75,33,17
2017-07-15T23:59:59Z,115,171,148,97,171,115,145,95,0,5,0,0,0,0,0,0,3,168,2,113,0,171,0,115,0,0,0,0,0,0,0,0,137,32,2,88,31,7,171,0,0,115,11,1,171,0,0,115,6,1,170,1,0,114,12,1,171,0,0,115,6,1,171,0,0,115,6,1,171,0,0,115,6,1,133,36,2,86,36,2,168,3,0,112,8,1,168,3,0,112,8,1,0,169,2,0,114,2,0,169,2,0,114,2,134,35,2,90,33,2,168,3,0,112,8,1,110,42,19,77,34,17
2017-07-16T23:59:59Z,113,165,143,96,165,113,140,94,0,5,0,0,0,0,0,0,3,162,2,111,0,165,1,113,0,0,0,0,0,0,0,0,133,30,2,87,31,6,165,0,0,113,12,0,165,0,0,113,7,0,164,1,0,112,13,0,165,0,0,113,7,0,165,0,0,113,7,0,165,0,0,113,7,0,130,33,2,86,35,1,163,2,0,111,8,0,163,2,0,111,8,0,0,163,2,0,112,1,0,163,2,0,112,1,131,32,2,90,32,1,163,2,0,111,8,0,108,41,16,77,32,16
2017-07-17T23:59:59Z,111,167,148,96,167,111,145,94,0,5,0,0,0,0,0,0,1,166,1,110,0,167,0,111,0,0,0,0,0,0,0,0,136,31,0,86,30,5,167,0,0,111,11,0,167,0,0,111,6,0,167,0,0,111,11,0,167,0,0,111,6,0,167,0,0,111,6,0,167,0,0,111,6,0,134,33,0,86,33,0,165,2,0,109,7,0,165,2,0,109,7,0,0,167,0,0,111,0,0,167,0,0,111,0,134,33,0,89,31,0,165,2,0,109,7,0,103,44,20,73,34,17
2017-07-18T23:59:59Z,113,168,149,98,168,113,146,96,0,5,0,0,0,0,0,0,2,166,2,112,0,168,0,113,0,0,0,0,0,0,0,0,138,30,0,89,30,5,168,0,0,113,12,0,168,0,0,113,7,0,167,1,0,112,13,0,168,0,0,113,7,0,168,0,0,113,7,0,168,0,0,113,7,0,134,34,0,87,35,0,166,2,0,111,8,0,166,2,0,111,8,0,0,168,0,0,113,0,0,168,0,0,113,0,135,33,0,91,32,0,166,2,0,111,8,0,106,43,19,75,34,17
2017-07-19T23:59:59Z,114,170,146,96,170,114,143,94,0,4,0,0,0,0,0,0,5,165,3,111,0,170,0,114,0,0,0,0,0,0,0,0,136,30,4,88,30,7,170,0,0,114,11,1,170,0,0,114,7,1,170,0,0,114,11,1,170,0,0,114,7,1,170,0,0,114,7,1,170,0,0,114,7,1,133,33,4,87,34,3,167,3,0,111,9,1,167,3,0,111,9,1,0,166,4,0,112,3,0,166,4,0,112,3,133,33,4,89,32,3,167,3,0,111,9,1,106,44,20,75,35,16
2017-07-20T23:59:59Z,115,172,149,98,172,115,146,96,0,4,0,0,0,0,0,0,5,167,3,112,0,172,0,115,0,0,0,0,0,0,0,0,140,28,4,90,29,6,172,0,0,115,11,0,172,0,0,115,7,0,171,1,0,114,12,0,172,0,0,115,7,0,172,0,0,115,7,0,172,0,0,115,7,0,138,30,4,90,32,2,170,2,0,113,8,0,170,2,0,113,8,0,0,168,4,0,113,2,0,168,4,0,113,2,138,30,4,92,30,2,170,2,0,113,8,0,108,45,19,76,35,16
2017-07-21T23:59:59Z,111,168,148,96,168,111,145,94,0,4,0,0,0,0,0,0,1,167,1,110,0,168,0,111,0,0,0,0,0,0,0,0,140,28,0,88,28,4,168,0,0,111,10,0,168,0,0,111,6,0,167,1,0,110,11,0,168,0,0,111,6,0,168,0,0,111,6,0,168,0,0,111,6,0,137,31,0,87,32,0,166,2,0,109,7,0,166,2,0,109,7,0,0,168,0,0,111,0,0,168,0,0,111,0,138,30,0,90,29,0,166,2,0,109,7,0,102,44,22,72,35,16
2017-07-22T23:59:59Z,113,168,145,96,167,113,142,94,1,5,0,0,0,0,0,0,4,164,3,111,0,168,0,113,0,0,0,0,0,0,0,0,136,30,2,87,30,5,168,0,0,113,10,0,168,0,0,113,6,0,168,0,0,113,10,0,168,0,0,113,6,0,168,0,0,113,6,0,168,0,0,113,6,0,134,31,3,87,33,2,166,1,1,111,7,1,166,1,1,111,7,1,0,165,3,0,112,2,0,165,3,0,112,2,134,31,3,89,31,2,166,1,1,111,7,1,104,45,19,74,35,16
2017-07-23T23:59:59Z,116,172,148,98,171,116,145,96,0,4,0,0,0,0,0,0,3,169,2,114,0,172,0,116,0,0,0,0,0,0,0,0,141,29,2,91,29,6,172,0,0,116,10,1,172,0,0,116,6,1,171,1,0,115,11,1,172,0,0,116,6,1,172,0,0,116,6,1,172,0,0,116,6,1,137,32,3,89,34,3,169,2,1,113,8,2,169,2,1,113,8,2,0,169,3,0,115,3,0,169,3,0,115,3,138,31,3,92,31,3,169,2,1,113,8,2,106,47,19,75,37,16
2017-07-24T23:59:59Z,115,172,149,98,172,115,146,96,0,4,0,0,0,0,0,0,3,169,2,113,0,171,0,114,0,0,0,0,0,0,0,0,140,30,2,89,30,5,172,0,0,115,10,0,172,0,0,115,6,0,171,1,0,114,11,0,172,0,0,115,6,0,172,0,0,115,6,0,172,0,0,115,6,0,137,33,2,88,34,1,170,2,0,113,7,0,170,2,0,113,7,0,0,170,2,0,114,1,0,170,2,0,114,1,138,32,2,91,31,1,169,3,0,112,8,0,107,45,20,76,35,16
2017-07-25T23:59:59Z,113,169,146,96,169,113,143,94,2,5,0,0,0,0,0,0,5,164,3,111,0,169,0,113,0,0,0,0,0,0,0,0,135,31,3,87,31,6,169,0,0,113,11,1,169,0,0,113,7,1,169,0,0,113,11,1,169,0,0,113,7,1,169,0,0,113,7,1,169,0,0,113,7,1,133,33,3,87,34,2,167,2,0,111,8,1,167,2,0,111,8,1,0,166,3,0,112,2,0,166,3,0,112,2,133,33,3,89,32,2,167,2,0,111,8,1,104,45,20,74,35,16
2017-07-26T23:59:59Z,115,171,147,97,171,115,144,95,0,4,0,0,0,0,0,0,5,166,3,112,0,171,0,115,0,0,0,0,0,0,0,0,136,31,4,88,31,6,171,0,0,115,11,0,171,0,0,115,7,0,170,1,0,114,12,0,171,0,0,115,7,0,171,0,0,115,7,0,171,0,0,115,7,0,133,34,4,87,35,2,169,2,0,113,8,0,169,2,0,113,8,0,0,167,4,0,113,2,0,167,4,0,113,2,134,33,4,90,32,2,169,2,0,113,8,0,107,45,19,76,35,16
2017-07-27T23:59:59Z,115,169,145,97,169,115,142,95,0,4,0,0,0,0,0,0,5,164,3,112,0,169,0,115,0,0,0,0,0,0,0,0,135,30,4,88,30,6,169,0,0,115,10,0,169,0,0,115,6,0,167,2,0,113,12,0,168,1,0,114,7,0,168,1,0,114,7,0,168,1,0,114,7,0,131,34,4,86,35,2,166,3,0,112,8,0,166,3,0,112,8,0,0,165,4,0,113,2,0,165,4,0,113,2,133,32,4,90,31,2,166,3,0,112,8,0,105,45,19,76,35,16
2017-07-28T23:59:59Z,114,170,148,97,170,114,145,95,0,4,0,0,0,0,0,0,4,166,3,112,0,168,0,113,0,0,0,0,0,0,0,0,137,31,2,88,31,5,170,0,0,114,11,0,170,0,0,114,7,0,170,0,0,114,11,0,170,0,0,114,7,0,170,0,0,114,7,0,170,0,0,114,7,0,135,33,2,88,34,1,168,2,0,112,8,0,168,2,0,112,8,0,0,168,2,0,113,1,0,168,2,0,113,1,134,34,2,89,33,1,166,4,0,111,9,0,104,46,20,75,35,16
2017-07-29T23:59:59Z,114,169,149,99,169,114,146,97,0,5,0,0,0,0,0,0,3,166,2,112,0,169,0,114,0,0,0,0,0,0,0,0,138,29,2,90,29,6,169,0,0,114,11,0,169,0,0,114,6,0,169,0,0,114,11,0,169,0,0,114,6,0,169,0,0,114,6,0,169,0,0,114,6,0,134,33,2,88,33,1,166,3,0,111,8,0,166,3,0,111,8,0,0,167,2,0,113,1,0,167,2,0,113,1,134,33,2,91,31,1,167,2,0,112,7,0,106,44,19,76,34,17
2017-07-30T23:59:59Z,116,171,149,99,171,116,146,97,2,7,0,0,0,0,0,0,4,167,3,114,0,170,0,115,0,0,0,0,0,0,0,0,139,30,2,90,31,7,171,0,0,116,12,1,171,0,0,116,7,1,170,1,0,115,13,1,171,0,0,116,7,1,171,0,0,116,7,1,171,0,0,116,7,1,135,34,2,88,36,2,168,3,0,113,9,1,168,3,0,113,9,1,0,169,2,0,115,2,0,169,2,0,115,2,136,33,2,92,33,2,168,3,0,113,9,1,105,46,20,76,36,17
2017-07-31T23:59:59Z,115,173,152,99,173,115,149,97,0,5,0,0,0,0,0,0,3,170,2,113,0,173,0,115,0,0,0,0,0,0,0,0,140,31,2,90,29,6,173,0,0,115,11,0,173,0,0,115,6,0,173,0,0,115,11,0,173,0,0,115,6,0,173,0,0,115,6,0,173,0,0,115,6,0,138,33,2,90,32,1,172,1,0,114,6,0,172,1,0,114,6,0,0,171,2,0,114,1,0,171,2,0,114,1,138,33,2,93,30,1,172,1,0,114,6,0,108,45,20,76,35,17
2017-08-01T23:59:59Z,113,170,147,96,169,113,144,94,0,5,0,0,0,0,0,0,5,165,3,110,0,170,0,113,0,0,0,0,0,0,0,0,138,28,4,88,28,7,170,0,0,113,11,0,170,0,0,113,6,0,169,1,0,112,12,0,170,0,0,113,6,0,170,0,0,113,6,0,170,0,0,113,6,0,136,30,4,88,31,2,169,1,0,112,6,0,169,1,0,112,6,0,0,166,4,0,111,2,0,166,4,0,111,2,136,30,4,91,29,2,169,1,0,112,6,0,107,45,18,75,34,16
2017-08-02T23:59:59Z,115,175,152,98,175,115,149,96,0,5,0,0,0,0,0,0,6,169,4,112,0,173,0,114,0,0,0,0,0,0,0,0,141,30,4,89,30,7,175,0,0,115,12,0,175,0,0,115,7,0,175,0,0,115,12,0,175,0,0,115,7,0,175,0,0,115,7,0,175,0,0,115,7,0,139,32,4,89,33,2,174,1,0,114,7,0,174,1,0,114,7,0,0,171,4,0,113,2,0,171,4,0,113,2,139,32,4,92,31,2,174,1,0,114,7,0,109,46,20,76,35,17
2017-08-03T23:59:59Z,115,173,153,98,173,115,150,96,0,4,0,0,0,0,0,0,3,170,2,113,0,173,0,115,0,0,0,0,0,0,0,0,143,28,2,91,29,6,173,0,0,115,11,1,172,0,0,114,7,1,172,0,0,114,11,1,172,0,0,114,7,1,172,0,0,114,7,1,172,0,0,114,7,1,140,31,2,90,33,2,170,2,0,112,8,1,170,2,0,112,8,1,0,171,2,0,114,2,0,171,2,0,114,2,140,31,2,92,31,2,171,2,0,113,8,1,106,47,20,75,36,16
2017-08-04T23:59:59Z,114,170,153,99,170,114,150,97,0,6,0,0,0,0,0,0,1,169,1,113,0,170,0,114,0,0,0,0,0,0,0,0,144,26,0,92,28,6,170,0,0,114,13,0,169,0,0,113,7,0,167,2,0,111,14,0,169,0,0,113,7,0,169,0,0,113,7,0,169,0,0,113,7,0,141,29,0,91,33,0,168,2,0,112,8,0,167,2,0,111,8,0,0,170,0,0,114,0,0,170,0,0,114,0,141,29,0,93,30,0,169,1,0,113,7,0,104,47,19,75,35,18
2017-08-05T23:59:59Z,113,169,151,97,169,113,148,95,1,5,0,0,0,0,0,0,1,168,1,112,0,169,0,113,0,0,0,0,0,0,0,0,143,26,0,91,27,5,169,0,0,113,10,1,169,0,0,113,6,1,167,1,0,111,11,1,168,0,0,112,6,1,168,0,0,112,6,1,168,0,0,112,6,1,139,30,0,89,32,1,167,2,0,111,7,1,165,2,1,110,7,2,0,168,1,0,113,2,0,168,1,0,113,2,140,29,0,92,29,1,167,2,0,111,7,1,103,47,19,73,36,16
2017-08-06T23:59:58Z,117,177,158,101,177,117,155,99,0,4,0,0,0,0,0,0,3,174,2,115,0,177,0,117,0,0,0,0,0,0,0,0,146,29,2,92,30,5,177,0,0,117,11,0,177,0,0,117,7,0,175,1,0,115,12,0,176,0,0,116,7,0,176,0,0,116,7,0,176,0,0,116,7,0,143,32,2,91,34,1,175,2,0,115,8,0,174,2,0,114,8,0,0,175,2,0,116,1,0,175,2,0,116,1,144,31,2,94,31,1,175,2,0,115,8,0,111,46,20,78,35,16
2017-08-07T23:59:59Z,117,176,157,101,176,117,154,99,0,4,0,0,0,0,0,0,3,173,2,115,0,174,0,116,0,0,0,0,0,0,0,0,145,29,2,92,30,5,176,0,0,117,11,0,176,0,0,117,7,0,175,0,0,116,11,0,175,0,0,116,7,0,175,0,0,116,7,0,175,0,0,116,7,0,143,31,2,92,33,1,174,2,0,115,8,0,174,2,0,115,8,0,0,174,2,0,116,1,0,174,2,0,116,1,143,31,2,94,31,1,174,2,0,115,8,0,111,46,19,78,35,16
2017-08-08T23:59:59Z,118,179,158,101,179,118,155,99,0,4,0,0,0,0,0,0,5,174,3,115,0,179,0,118,0,0,0,0,0,0,0,0,146,29,4,92,30,6,179,0,0,118,11,0,179,0,0,118,7,0,178,0,0,117,11,0,178,0,0,117,7,0,178,0,0,117,7,0,178,0,0,117,7,0,144,31,4,92,33,2,177,2,0,116,8,0,177,2,0,116,8,0,0,175,4,0,116,2,0,175,4,0,116,2,144,31,4,94,31,2,177,2,0,116,8,0,113,47,19,79,35,16
2017-08-09T23:59:59Z,116,176,155,99,176,116,152,97,0,4,0,0,0,0,0,0,5,171,3,113,0,176,0,116,0,0,0,0,0,0,0,0,144,28,4,91,28,6,176,0,0,116,10,0,176,0,0,116,6,0,175,0,0,115,10,0,175,0,0,115,6,0,174,1,0,114,7,0,175,0,0,115,6,0,142,30,4,91,31,2,173,3,0,113,8,0,173,3,0,113,8,0,0,172,4,0,114,2,0,172,4,0,114,2,142,30,4,93,29,2,173,3,0,113,8,0,112,44,20,78,34,16
2017-08-10T23:59:59Z,116,176,156,99,176,116,153,97,0,4,0,0,0,0,0,0,3,173,2,114,0,176,0,116,0,0,0,0,0,0,0,0,144,30,2,91,29,6,176,0,0,116,10,1,176,0,0,116,6,1,175,0,0,115,10,1,175,0,0,115,6,1,175,0,0,115,6,1,175,0,0,115,6,1,141,33,2,90,33,2,173,3,0,113,8,1,173,3,0,113,8,1,0,174,2,0,115,2,0,174,2,0,115,2,141,33,2,92,31,2,173,3,0,113,8,1,112,45,19,77,35,16
2017-08-11T23:59:59Z,115,173,153,99,173,115,150,97,0,5,0,0,0,0,0,0,3,170,2,113,0,172,1,114,0,0,0,0,0,0,0,0,142,29,2,90,29,6,173,0,0,115,11,0,173,0,0,115,7,0,172,0,0,114,11,0,172,0,0,114,7,0,172,0,0,114,7,0,172,0,0,114,7,0,140,31,2,90,32,1,171,2,0,113,8,0,171,2,0,113,8,0,0,171,2,0,114,1,0,171,2,0,114,1,140,31,2,93,30,1,170,2,1,112,8,1,109,45,19,76,35,17
2017-08-12T23:59:59Z,113,172,153,97,172,113,151,96,0,4,0,0,0,0,0,0,3,169,2,111,0,172,0,113,0,0,0,0,0,0,0,0,141,29,2,89,28,5,172,0,0,113,10,0,172,0,0,113,6,0,170,1,0,111,11,0,171,0,0,112,6,0,171,0,0,112,6,0,171,0,0,112,6,0,138,32,2,88,32,1,169,3,0,110,8,0,169,3,0,110,8,0,0,170,2,0,112,1,0,170,2,0,112,1,139,31,2,91,29,1,170,2,0,111,7,0,109,44,19,75,34,16
2017-08-13T23:59:59Z,114,174,152,96,174,114,151,95,0,4,0,0,0,0,0,0,5,169,3,111,0,172,0,113,0,0,0,0,0,0,0,0,142,28,4,89,28,7,174,0,0,114,10,1,174,0,0,114,6,1,173,0,0,113,10,1,173,0,0,113,6,1,173,0,0,113,6,1,173,0,0,113,6,1,140,30,4,89,31,3,172,2,0,112,7,1,172,2,0,112,7,1,0,170,4,0,112,3,0,170,4,0,112,3,140,30,4,91,29,3,172,2,0,112,7,1,112,44,18,77,33,15
2017-08-14T23:59:59Z,120,183,158,101,183,120,156,99,0,5,0,0,0,0,0,0,6,177,4,117,0,183,0,120,0,0,0,0,0,0,0,0,147,31,5,92,31,8,183,0,0,120,12,1,183,0,0,120,7,1,182,0,0,119,12,1,182,0,0,119,7,1,182,0,0,119,7,1,182,0,0,119,7,1,146,33,4,93,34,3,180,3,0,117,9,1,180,3,0,117,9,1,0,179,4,0,118,3,0,179,4,0,118,3,146,33,4,96,32,3,181,2,0,118,8,1,118,45,20,82,34,17
2017-08-15T23:59:59Z,120,182,157,101,181,120,153,99,0,5,0,0,0,0,0,0,6,176,4,117,0,182,0,120,0,0,0,0,0,0,0,0,145,33,4,91,33,8,182,0,0,120,12,1,182,0,0,120,7,1,180,1,0,118,13,1,180,1,0,118,8,1,180,1,0,118,8,1,180,1,0,118,8,1,142,36,4,90,37,3,179,3,0,117,9,1,179,3,0,117,9,1,0,178,4,0,118,3,0,178,4,0,118,3,143,35,4,94,34,3,179,3,0,117,9,1,118,44,20,82,34,17
2017-08-16T23:59:59Z,121,180,159,104,180,121,155,101,0,7,0,0,0,0,0,0,1,179,1,120,0,180,0,121,0,0,0,0,0,0,0,0,146,34,0,93,34,7,180,0,0,121,13,1,179,1,0,121,8,1,176,3,0,118,15,1,178,1,0,120,8,1,178,1,0,120,8,1,178,1,0,120,8,1,143,37,0,92,38,1,177,3,0,119,9,1,177,3,0,119,9,1,0,180,0,0,121,1,0,180,0,0,121,1,144,36,0,96,35,1,178,2,0,119,8,1,117,44,19,83,34,18
2017-08-17T23:59:59Z,121,183,159,102,183,121,155,99,0,6,0,0,0,0,0,0,4,179,3,119,0,183,0,121,0,0,0,0,0,0,0,0,147,34,2,92,33,8,183,0,0,121,11,2,183,0,0,121,6,2,181,1,0,119,12,2,182,0,0,120,6,2,182,0,0,120,6,2,182,0,0,120,6,2,143,38,2,90,38,3,180,3,0,118,8,2,180,3,0,118,8,2,0,181,2,0,120,3,0,181,2,0,120,3,144,37,2,94,35,3,180,3,0,118,8,2,118,46,19,82,35,17
2017-08-18T23:59:59Z,116,173,150,98,173,116,146,95,0,5,0,0,0,0,0,0,4,169,3,114,0,173,0,116,0,0,0,0,0,0,0,0,137,33,3,87,32,7,173,0,0,116,11,1,173,0,0,116,6,1,172,0,0,115,11,1,172,0,0,115,6,1,172,0,0,115,6,1,172,0,0,115,6,1,136,35,2,88,35,2,171,2,0,114,7,1,171,2,0,114,7,1,0,171,2,0,115,2,0,171,2,0,115,2,136,35,2,91,33,2,171,2,0,114,7,1,115,41,17,80,32,16
2017-08-19T23:59:59Z,118,177,152,99,177,118,148,96,1,5,0,0,0,0,0,0,5,172,3,115,0,174,0,117,0,0,0,0,0,0,0,0,139,34,4,88,34,7,177,0,0,118,11,1,177,0,0,118,7,1,176,0,0,117,11,1,176,0,0,117,7,1,176,0,0,117,7,1,176,0,0,117,7,1,137,36,4,88,36,3,175,2,0,116,8,1,175,2,0,116,8,1,0,173,4,0,116,3,0,173,4,0,116,3,137,36,4,91,35,3,175,2,0,116,8,1,118,41,18,83,31,15